[[{"header":{"parameterUnit":"m.s-1","parameterCategory":1,"la1":30.2991,"la2":30.254,"lo1":-89.0895,"lo2":-89.0444,"dy":0.0017,"dx":0.0017,"nx":28,"ny":28,"refTime":"2025-12-22T03:00:00:Z","depth":0,"parameterNumber":2,"parameterNumberName":"U-component_of_WINDS"},"data":[0,0,0,0,0,0,0,0,0,0,0,0,0,0,0,0,0,0,0,0,0,0,0,0,0,0,0,0,0,0,0,0,0,0,0,0,0,0,0,0,0,0,0,0,0,0,0,0,0,0,0,0,0,0,0,0,0,0,-4.7133,-4.7133,0,-4.7214,-4.7215,-4.7216,-4.7187,-4.7186,-4.7184,-4.7182,-4.7258,-4.7262,-4.7265,0,0,0,0,0,0,0,0,0,0,0,0,0,-4.6946,-4.695,-4.7132,-4.7134,-4.7135,-4.7214,-4.7215,-4.7216,-4.7188,-4.7186,-4.7183,-4.7181,-4.7257,-4.7261,-4.7266,0,0,0,0,0,0,0,0,0,0,0,0,0,-4.7027,-4.6951,-4.7132,-4.713,-4.7131,-4.7214,-4.7215,-4.7216,-4.7188,-4.7185,-4.7183,-4.718,-4.7255,-4.7261,-4.7266,-4.7354,0,0,-4.7283,-4.7285,0,0,0,0,0,0,0,0,-4.7023,-4.7034,-4.7129,-4.713,-4.7131,-4.7188,-4.7177,-4.7262,-4.7189,-4.7166,-4.7182,-4.7179,-4.7236,-4.7243,-4.7264,-4.7357,-4.736,-4.7284,-4.7287,-4.7289,-4.7291,0,0,0,0,0,0,0,-4.7017,-4.703,-4.7164,-4.7131,-4.7132,-4.7123,-4.7132,-4.7193,-4.7215,-4.7168,-4.7166,-4.7177,-4.7236,-4.7259,-4.7266,-4.7362,-4.7283,-4.7288,-4.7292,-4.7294,-4.7531,-4.7534,0,0,0,0,0,0,-4.7012,-4.7026,-4.7162,-4.7167,-4.707,-4.7129,-4.7138,-4.7172,-4.7214,-4.7218,-4.7179,-4.7175,-4.7251,-4.7259,-4.7268,-4.7374,-4.7289,-4.7294,-4.7298,-4.7528,-4.7531,-4.7535,0,0,0,0,0,0,-4.7008,-4.7024,-4.7159,-4.7096,-4.7112,-4.7135,-4.7173,-4.7175,-4.7198,-4.7223,-4.7226,-4.7198,-4.7249,-4.726,-4.7333,-4.7376,-4.7297,-4.7302,-4.7524,-4.7529,-4.7533,-4.7585,0,0,0,0,0,0,-4.7003,-4.7023,-4.7058,-4.7097,-4.7116,-4.7224,-4.7176,-4.7179,-4.7208,-4.7204,-4.7242,-4.7245,-4.7248,-4.7325,-4.7339,-4.7382,-4.7306,-4.7521,-4.7526,-4.7532,-4.7579,-4.759,-4.76,0,0,0,0,0,-4.6996,-4.7067,-4.706,-4.7076,-4.716,-4.7227,-4.7237,-4.7241,-4.7212,-4.7246,-4.7262,-4.7244,-4.737,-4.7333,-4.7348,-4.7393,-4.7518,-4.7525,-4.7531,-4.7575,-4.7588,-4.76,0,0,0,0,0,0,-4.7029,-4.7072,-4.7064,-4.7151,-4.7186,-4.7222,-4.7265,-4.7255,-4.7297,-4.7291,-4.7291,-4.73,-4.7375,-4.7391,-4.735,-4.7481,-4.7439,-4.7449,-4.7467,-4.748,-4.749,-4.7484,-4.7311,0,0,0,0,0,-4.7047,-4.71,-4.7134,-4.7206,-4.7225,-4.7242,-4.7271,-4.7272,-4.7306,-4.732,-4.7341,-4.7374,-4.7421,-4.7452,-4.7496,-4.7582,-4.7589,-4.7621,-4.7631,-4.764,-4.7648,-4.7695,-4.7709,-4.7557,-4.7557,-4.7557,0,0,-4.7083,-4.7113,-4.7146,-4.7214,-4.7241,-4.7294,-4.7254,-4.7311,-4.735,-4.7328,-4.7399,-4.7416,-4.7452,-4.7532,-4.7569,-4.7548,-4.7692,-4.7648,-4.7655,-4.7658,-4.7703,-4.7717,-4.773,-4.7561,-4.756,-4.756,0,0,-4.7176,-4.7205,-4.7269,-4.7298,-4.7341,-4.7352,-4.7368,-4.7406,-4.7418,-4.7489,-4.7474,-4.7519,-4.76,-4.7627,-4.7651,-4.7757,-4.7742,-4.7771,-4.7825,-4.787,-4.7882,-4.7893,-4.793,-4.7944,-4.778,-4.778,-4.778,0,-4.7214,-4.7296,-4.7302,-4.7362,-4.7392,-4.7378,-4.7442,-4.7469,-4.7523,-4.7543,-4.752,-4.7623,-4.7646,-4.7732,-4.7759,-4.7779,-4.7796,-4.7766,-4.7881,-4.7891,-4.7901,-4.7937,-4.7951,-4.7783,-4.7783,-4.7782,-4.7782,0,-4.7341,-4.7398,-4.7444,-4.75,-4.7535,-4.7597,-4.7611,-4.7645,-4.7643,-4.7657,-4.773,-4.7758,-4.7809,-4.7829,-4.7826,-4.7916,-4.7902,-4.788,-4.7838,-4.7919,-4.7952,-4.7966,-4.7788,-4.7787,-4.7786,-4.7785,0,0,-4.7454,-4.7516,-4.7533,-4.7558,-4.7606,-4.7648,-4.7709,-4.7761,-4.779,-4.7829,-4.7878,-4.7948,-4.7929,-4.7957,-4.7957,-4.7998,-4.8079,-4.7971,-4.7972,-4.7989,-4.8179,-4.8194,-4.821,-4.807,-4.8073,-4.8075,-4.8176,0,-4.755,-4.766,-4.7668,-4.7766,-4.7818,-4.7807,-4.7859,-4.7893,-4.7908,-4.7952,-4.7967,-4.8017,-4.7988,-4.8005,-4.8045,-4.8061,-4.8117,-4.8054,-4.8115,-4.8117,-4.8105,-4.8227,-4.8243,-4.8337,-4.8189,-4.8191,-4.8193,0,-4.7676,-4.7722,-4.7826,-4.7868,-4.789,-4.7937,-4.7986,-4.803,-4.8067,-4.8075,-4.8108,-4.8103,-4.8164,-4.8121,-4.8204,-4.8161,-4.8186,-4.8198,-4.8202,-4.8206,-4.8158,-4.8234,-4.8367,-4.838,-4.8213,-4.8212,-4.821,0,-4.7748,-4.7835,-4.7909,-4.7931,-4.7982,-4.8015,-4.8037,-4.8073,-4.8104,-4.8147,-4.8167,-4.8215,-4.824,-4.8277,-4.8285,-4.8253,-4.8367,-4.8325,-4.8374,-4.8374,-4.8397,-4.8395,-4.8534,-4.8415,-4.8415,-4.8415,-4.8415,0,-4.7853,-4.7917,-4.7942,-4.7987,-4.8057,-4.8067,-4.8136,-4.8155,-4.8188,-4.8235,-4.8228,-4.8271,-4.828,-4.8325,-4.8332,-4.8399,-4.8411,-4.8418,-4.8418,-4.8418,-4.8417,-4.8433,-4.8426,-4.8419,-4.8418,-4.8417,-4.8417,0,-4.7944,-4.7963,-4.8043,-4.8086,-4.8098,-4.8148,-4.8184,-4.8226,-4.8241,-4.8301,-4.8316,-4.8338,-4.8392,-4.8404,-4.8466,-4.8471,-4.855,-4.8545,-4.8538,-4.8537,-4.8585,-4.858,-4.8738,-4.8759,-4.8628,-4.8629,-4.863,0,-4.8009,-4.8059,-4.8108,-4.8141,-4.8166,-4.8218,-4.8251,-4.8262,-4.8296,-4.8345,-4.8381,-4.8434,-4.8477,-4.8563,-4.8583,-4.8631,-4.8626,-4.8679,-4.8633,-4.8631,-4.8626,-4.8623,-4.8627,-4.8687,-4.8688,-4.8689,-4.869,0,-4.8123,-4.8131,-4.818,-4.8234,-4.8274,-4.8316,-4.8356,-4.8382,-4.8399,-4.8437,-4.8494,-4.8527,-4.8593,-4.8645,-4.8694,-4.8714,-4.8705,-4.8705,-4.8718,-4.8717,-4.8711,-4.8715,-4.8561,-4.8701,-4.8699,-4.8699,-4.8698,-4.8698,-4.8202,-4.8246,-4.8289,-4.8344,-4.8376,-4.8414,-4.8456,-4.8479,-4.8527,-4.8583,-4.8586,-4.8647,-4.8684,-4.8749,-4.8773,-4.8819,-4.8803,-4.8823,-4.8827,-4.8832,-4.8836,-4.8706,-4.8828,-4.8828,-4.8828,-4.8828,-4.8827,0,-4.8315,-4.8343,-4.8394,-4.8452,-4.8495,-4.8487,-4.853,-4.8566,-4.8621,-4.8658,-4.8702,-4.8767,-4.8818,-4.8844,-4.8895,-4.8927,-4.8924,-4.894,-4.8937,-4.8942,-4.8848,-4.8831,-4.8942,-4.8942,-4.8942,-4.8942,-4.8942,-4.8942,-4.8379,-4.8452,-4.8466,-4.8555,-4.8581,-4.8644,-4.8669,-4.8704,-4.8734,-4.8808,-4.8852,-4.887,-4.8902,-4.8955,-4.9002,-4.9008,-4.9026,-4.9044,-4.9048,-4.896,-4.8948,-4.8937,-4.8921,-4.9049,-4.9049,-4.9138,-4.9139,-4.9139]},{"header":{"parameterUnit":"m.s-1","parameterCategory":1,"la1":30.2991,"la2":30.254,"lo1":-89.0895,"lo2":-89.0444,"dy":0.0017,"dx":0.0017,"nx":28,"ny":28,"refTime":"2025-12-22T03:00:00:Z","depth":0,"parameterNumber":3,"parameterNumberName":"V-component_of_WINDS"},"data":[0,0,0,0,0,0,0,0,0,0,0,0,0,0,0,0,0,0,0,0,0,0,0,0,0,0,0,0,0,0,0,0,0,0,0,0,0,0,0,0,0,0,0,0,0,0,0,0,0,0,0,0,0,0,0,0,0,0,2.2578,2.2578,0,2.2585,2.2585,2.2585,2.261,2.261,2.2611,2.2611,2.261,2.261,2.2609,0,0,0,0,0,0,0,0,0,0,0,0,0,2.2582,2.2582,2.2578,2.2578,2.2578,2.2585,2.2585,2.2585,2.2609,2.261,2.2611,2.2612,2.2611,2.261,2.2609,0,0,0,0,0,0,0,0,0,0,0,0,0,2.2583,2.2582,2.2578,2.2592,2.2593,2.2585,2.2585,2.2585,2.2609,2.261,2.2611,2.2612,2.2611,2.261,2.2609,2.2586,0,0,2.2607,2.2606,0,0,0,0,0,0,0,0,2.2583,2.2583,2.2589,2.2591,2.2592,2.2597,2.2586,2.2585,2.2609,2.2603,2.2611,2.2612,2.2605,2.2605,2.2604,2.2586,2.2586,2.2606,2.2606,2.2606,2.2605,0,0,0,0,0,0,0,2.2583,2.2583,2.258,2.259,2.2591,2.2596,2.2597,2.2586,2.2598,2.2603,2.2605,2.2606,2.2606,2.2604,2.2604,2.2586,2.2607,2.2606,2.2605,2.2605,2.2553,2.2552,0,0,0,0,0,0,2.2582,2.2583,2.258,2.2581,2.259,2.2595,2.2596,2.2595,2.2599,2.26,2.2605,2.2607,2.2605,2.2605,2.2604,2.2579,2.2606,2.2605,2.2604,2.2554,2.2553,2.2552,0,0,0,0,0,0,2.2582,2.2582,2.258,2.2582,2.2583,2.2594,2.2592,2.2594,2.2593,2.26,2.2602,2.2602,2.2606,2.2605,2.2592,2.2579,2.2604,2.2604,2.2555,2.2553,2.2552,2.2528,0,0,0,0,0,0,2.2582,2.2581,2.2574,2.2582,2.2582,2.2569,2.2591,2.2594,2.2592,2.2595,2.2598,2.2599,2.2607,2.2593,2.2591,2.2578,2.2603,2.2556,2.2554,2.2552,2.253,2.2526,2.2523,0,0,0,0,0,2.2582,2.2564,2.2573,2.2573,2.2573,2.2568,2.2568,2.258,2.2591,2.2583,2.2588,2.2599,2.2581,2.2591,2.2589,2.2576,2.2557,2.2555,2.2553,2.2531,2.2527,2.2523,0,0,0,0,0,0,2.2551,2.2566,2.2575,2.256,2.2563,2.2572,2.2562,2.2574,2.2571,2.2573,2.2586,2.2586,2.2571,2.2572,2.2583,2.2556,2.2571,2.2568,2.2555,2.2551,2.2547,2.2547,2.2602,0,0,0,0,0,2.2543,2.2539,2.2552,2.2537,2.2538,2.255,2.2548,2.2558,2.256,2.256,2.2564,2.2564,2.2559,2.2555,2.255,2.2531,2.2532,2.2521,2.2517,2.2514,2.2512,2.2503,2.2499,2.2545,2.2545,2.2545,0,0,2.2525,2.2533,2.2529,2.2531,2.2534,2.253,2.2551,2.2544,2.254,2.2558,2.2547,2.255,2.2551,2.2535,2.2528,2.2536,2.25,2.2512,2.2509,2.2508,2.2501,2.2496,2.2492,2.2544,2.2544,2.2544,0,0,2.249,2.2495,2.2485,2.2489,2.2495,2.2504,2.2501,2.251,2.2514,2.2503,2.2518,2.2512,2.2502,2.2504,2.2503,2.2472,2.2482,2.247,2.2451,2.2442,2.2438,2.2435,2.2425,2.2421,2.2467,2.2467,2.2467,0,2.2466,2.2461,2.2477,2.2471,2.2472,2.2492,2.2481,2.2484,2.2486,2.2486,2.2495,2.2486,2.2487,2.2473,2.2466,2.2464,2.2462,2.2469,2.2438,2.2435,2.2432,2.2423,2.2419,2.2466,2.2466,2.2466,2.2466,0,2.2432,2.2429,2.2419,2.2426,2.2426,2.2417,2.2431,2.2428,2.2438,2.2446,2.2435,2.2439,2.2437,2.2434,2.2441,2.2421,2.2426,2.2436,2.2452,2.2426,2.2418,2.2414,2.2464,2.2465,2.2465,2.2465,0,0,2.2375,2.2394,2.239,2.2395,2.2405,2.2401,2.2394,2.2395,2.2393,2.2395,2.2388,2.2382,2.2393,2.2392,2.24,2.2393,2.237,2.2405,2.2405,2.2399,2.2349,2.2341,2.2337,2.2377,2.2377,2.2376,2.2349,0,2.2343,2.2334,2.235,2.2336,2.2333,2.2354,2.2347,2.2352,2.236,2.2357,2.2364,2.236,2.2374,2.2374,2.2368,2.2374,2.236,2.2376,2.2371,2.237,2.237,2.2332,2.2323,2.2297,2.2346,2.2345,2.2345,0,2.2303,2.2308,2.2295,2.2309,2.2308,2.2302,2.2306,2.2303,2.2309,2.2315,2.2316,2.2328,2.2321,2.2337,2.2327,2.2338,2.2337,2.234,2.2339,2.2338,2.2356,2.233,2.2289,2.2285,2.2339,2.234,2.234,0,2.2265,2.2267,2.226,2.2263,2.2278,2.2274,2.2279,2.2287,2.2287,2.229,2.229,2.229,2.229,2.229,2.2301,2.2312,2.229,2.2307,2.2295,2.2294,2.2288,2.2288,2.2246,2.2287,2.2287,2.2288,2.2288,0,2.2227,2.2218,2.2243,2.2239,2.223,2.2248,2.2239,2.2246,2.2253,2.225,2.2267,2.2263,2.2279,2.2276,2.2285,2.2276,2.2276,2.228,2.2282,2.2278,2.2278,2.2277,2.2279,2.2286,2.2287,2.2287,2.2287,0,2.2181,2.2198,2.2192,2.2209,2.2213,2.2205,2.2219,2.2215,2.2225,2.2221,2.2221,2.2235,2.2234,2.2246,2.2245,2.2252,2.2239,2.2244,2.2237,2.2239,2.2226,2.2228,2.2182,2.2177,2.2221,2.2221,2.2221,0,2.2156,2.215,2.2168,2.2169,2.2175,2.2175,2.2177,2.2195,2.2195,2.2204,2.2199,2.22,2.2201,2.2198,2.2207,2.2208,2.2213,2.2197,2.2213,2.221,2.2214,2.2214,2.2214,2.2194,2.2193,2.2193,2.2192,0,2.2109,2.2119,2.2122,2.2129,2.2132,2.2137,2.2143,2.2142,2.2162,2.2162,2.2163,2.2164,2.2167,2.2167,2.217,2.2174,2.2186,2.2188,2.2185,2.2181,2.2178,2.218,2.2229,2.2188,2.2189,2.2189,2.2189,2.2189,2.2073,2.2071,2.2084,2.2087,2.2095,2.2101,2.2099,2.2111,2.2112,2.2118,2.2128,2.2127,2.2135,2.2141,2.2145,2.2144,2.2151,2.2147,2.2146,2.2144,2.2143,2.2179,2.2144,2.2144,2.2144,2.2144,2.2144,0,2.2029,2.2039,2.2042,2.2053,2.2056,2.2071,2.2079,2.208,2.208,2.2088,2.2091,2.2092,2.2094,2.2105,2.2107,2.2104,2.211,2.2104,2.2104,2.2106,2.2135,2.2138,2.21,2.21,2.21,2.21,2.21,2.21,2.2006,2.2002,2.2014,2.2015,2.2024,2.2026,2.203,2.2036,2.2043,2.2045,2.2047,2.2056,2.2065,2.2069,2.2071,2.2074,2.2074,2.2067,2.2072,2.2099,2.2103,2.2107,2.211,2.2067,2.2067,2.2042,2.2042,2.2042]}]]